| time (UTC) | temp C | wind direction | speed KPH | gust KPH | rain 1hr cm | rain 24hr cm | rain mn cm | humidity % | barometer mb |
| 20260504184250 | 2 | 297 | 0.0 | 0.0 | 0.00 | 0.00 | 0.00 | 76 | 1020.3 |
| 20260504184005 | 2 | 285 | 0.0 | 0.0 | 0.00 | 0.00 | 0.00 | 76 | 1026.7 |
| 20260504183746 | 2 | 281 | 0.0 | 0.0 | 0.00 | 0.00 | 0.00 | 75 | 1020.2 |
| 20260504183243 | 2 | 297 | 0.0 | 0.0 | 0.00 | 0.00 | 0.00 | 75 | 1020.1 |
| 20260504183004 | 2 | 292 | 0.0 | 0.0 | 0.00 | 0.00 | 0.00 | 75 | 1026.7 |
| 20260504182741 | 2 | 318 | 0.0 | 0.0 | 0.00 | 0.00 | 0.00 | 75 | 1019.8 |
| 20260504182505 | 2 | 356 | 0.0 | 0.0 | 0.00 | 0.00 | 0.00 | 75 | 1026.4 |
| 20260504182238 | 2 | 356 | 0.0 | 0.0 | 0.00 | 0.00 | 0.00 | 75 | 1019.9 |
| 20260504182004 | 2 | 356 | 0.0 | 0.0 | 0.00 | 0.00 | 0.00 | 75 | 1026.4 |
| 20260504181736 | 2 | 356 | 0.0 | 0.0 | 0.00 | 0.00 | 0.00 | 75 | 1019.8 |
| 20260504181505 | 2 | 357 | 0.0 | 0.0 | 0.00 | 0.00 | 0.00 | 74 | 1026.5 |
| 20260504181233 | 2 | 357 | 0.0 | 0.0 | 0.00 | 0.00 | 0.00 | 74 | 1019.4 |
| 20260504180732 | 2 | 356 | 0.0 | 1.6 | 0.00 | 0.00 | 0.00 | 74 | 1019.1 |
| 20260504180231 | 2 | 357 | 0.0 | 3.2 | 0.00 | 0.00 | 0.00 | 73 | 1019.5 |
| 20260504180004 | 2 | 358 | 0.0 | 0.0 | 0.00 | 0.00 | 0.00 | 73 | 1026.0 |
| 20260504175727 | 2 | 359 | 0.0 | 0.0 | 0.00 | 0.00 | 0.00 | 73 | 1019.4 |
| 20260504175505 | 2 | 359 | 0.0 | 3.2 | 0.00 | 0.00 | 0.00 | 73 | 1025.9 |
| 20260504175224 | 2 | 0 | 3.2 | 3.2 | 0.00 | 0.00 | 0.00 | 72 | 1019.1 |
| 20260504175004 | 2 | 345 | 1.6 | 4.8 | 0.00 | 0.00 | 0.00 | 72 | 1026.0 |
| 20260504174722 | 3 | 329 | 0.0 | 0.0 | 0.00 | 0.00 | 0.00 | 72 | 1019.0 |
| 20260504174505 | 3 | 328 | 1.6 | 3.2 | 0.00 | 0.00 | 0.00 | 72 | 1026.0 |
| 20260504174220 | 3 | 359 | 0.0 | 1.6 | 0.00 | 0.00 | 0.00 | 71 | 1019.1 |
| 20260504174005 | 3 | 359 | 0.0 | 0.0 | 0.00 | 0.00 | 0.00 | 71 | 1025.6 |
| 20260504173716 | 3 | 0 | 0.0 | 3.2 | 0.00 | 0.00 | 0.00 | 71 | 1019.0 |
| 20260504173504 | 3 | 302 | 1.6 | 3.2 | 0.00 | 0.00 | 0.00 | 70 | 1025.6 |
| 20260504173213 | 3 | 307 | 0.0 | 1.6 | 0.00 | 0.00 | 0.00 | 70 | 1018.7 |
| 20260504173004 | 3 | 307 | 1.6 | 4.8 | 0.00 | 0.00 | 0.00 | 70 | 1025.6 |
| 20260504172710 | 3 | 225 | 0.0 | 3.2 | 0.00 | 0.00 | 0.00 | 70 | 1018.4 |
| 20260504172206 | 3 | 283 | 0.0 | 0.0 | 0.00 | 0.00 | 0.00 | 69 | 1018.6 |
| 20260504171703 | 3 | 285 | 1.6 | 1.6 | 0.00 | 0.00 | 0.00 | 68 | 1018.6 |
| 20260504171200 | 3 | 271 | 0.0 | 1.6 | 0.00 | 0.00 | 0.00 | 68 | 1018.6 |
| 20260504170656 | 3 | 273 | 3.2 | 3.2 | 0.00 | 0.00 | 0.00 | 67 | 1018.5 |
| 20260504170505 | 3 | 243 | 1.6 | 4.8 | 0.00 | 0.00 | 0.00 | 67 | 1025.3 |
| 20260504170154 | 3 | 219 | 0.0 | 1.6 | 0.00 | 0.00 | 0.00 | 66 | 1018.4 |
| 20260504160112 | 5 | 289 | 6.4 | 8.0 | 0.00 | 0.00 | 0.00 | 62 | 1017.3 |
| 20260504151039 | 6 | 270 | 3.2 | 9.7 | 0.00 | 0.00 | 0.00 | 50 | 1016.1 |
| 20260504151005 | 6 | 185 | 3.2 | 9.7 | 0.00 | 0.00 | 0.00 | 49 | 1023.2 |
| 20260504150537 | 6 | 281 | 6.4 | 8.0 | 0.00 | 0.00 | 0.00 | 53 | 1015.9 |
| 20260504141003 | 7 | 301 | 4.8 | 8.0 | 0.00 | 1.14 | 1.14 | 47 | 1014.7 |
| 20260504140459 | 7 | 258 | 4.8 | 4.8 | 0.00 | 1.14 | 1.14 | 45 | 1014.7 |
| 20260504130505 | 8 | 279 | 8.0 | 11.3 | 0.00 | 0.00 | 1.12 | 46 | 1020.3 |
| 20260504130424 | 8 | 270 | 9.7 | 11.3 | 0.00 | 1.14 | 1.14 | 46 | 1013.3 |
| 20260504110505 | 10 | 258 | 0.0 | 3.2 | 0.00 | 0.00 | 1.12 | 43 | 1017.7 |
| 20260504110311 | 10 | 258 | 0.0 | 0.0 | 0.00 | 1.14 | 1.14 | 43 | 1010.2 |
| 20260504100229 | 11 | 271 | 6.4 | 11.3 | 0.00 | 1.14 | 1.14 | 35 | 1008.3 |
| 20260504082004 | 14 | 299 | 3.2 | 6.4 | 0.00 | 0.00 | 1.12 | 40 | 1015.0 |
| 20260504081622 | 14 | 281 | 3.2 | 11.3 | 0.00 | 1.14 | 1.14 | 40 | 1007.2 |
| 20260504081118 | 14 | 343 | 4.8 | 4.8 | 0.00 | 1.14 | 1.14 | 40 | 1006.8 |
| 20260504081005 | 14 | 293 | 3.2 | 8.0 | 0.00 | 0.00 | 1.12 | 40 | 1014.6 |
| 20260504080615 | 15 | 297 | 4.8 | 4.8 | 0.00 | 1.14 | 1.14 | 41 | 1006.7 |
| 20260504080505 | 15 | 297 | 6.4 | 6.4 | 0.00 | 0.00 | 1.12 | 41 | 1014.6 |
| 20260504080111 | 15 | 254 | 3.2 | 12.9 | 0.00 | 1.14 | 1.14 | 40 | 1006.5 |
| 20260504050505 | 19 | 161 | 3.2 | 8.0 | 0.00 | 0.00 | 1.12 | 26 | 1011.5 |
| 20260504050427 | 19 | 325 | 3.2 | 11.3 | 0.00 | 1.14 | 1.14 | 25 | 1003.4 |
| 20260504045924 | 19 | 285 | 6.4 | 9.7 | 0.00 | 1.14 | 1.14 | 24 | 1003.4 |
| 20260504045505 | 19 | 255 | 6.4 | 11.3 | 0.00 | 0.00 | 1.12 | 25 | 1011.7 |
| 20260504045420 | 19 | 325 | 3.2 | 11.3 | 0.00 | 1.14 | 1.14 | 25 | 1003.6 |
| 20260504044916 | 19 | 266 | 3.2 | 11.3 | 0.00 | 1.14 | 1.14 | 24 | 1003.8 |
| 20260504044505 | 19 | 307 | 8.0 | 19.3 | 0.00 | 0.00 | 1.12 | 22 | 1011.7 |
| 20260504044414 | 19 | 263 | 11.3 | 17.7 | 0.00 | 1.14 | 1.14 | 22 | 1003.8 |
| 20260504044005 | 20 | 264 | 8.0 | 11.3 | 0.00 | 0.00 | 1.12 | 23 | 1012.1 |
| 20260504043911 | 20 | 267 | 8.0 | 11.3 | 0.00 | 1.14 | 1.14 | 23 | 1003.7 |
| 20260504043505 | 19 | 216 | 3.2 | 6.4 | 0.00 | 0.00 | 1.12 | 25 | 1011.8 |
| 20260504043408 | 19 | 280 | 3.2 | 8.0 | 0.00 | 1.14 | 1.14 | 26 | 1003.8 |
| 20260504043004 | 19 | 277 | 4.8 | 6.4 | 0.00 | 0.00 | 1.12 | 28 | 1012.3 |
| 20260504042906 | 19 | 281 | 4.8 | 4.8 | 0.00 | 1.14 | 1.14 | 28 | 1004.0 |
| 20260504042402 | 20 | 194 | 8.0 | 11.3 | 0.00 | 1.14 | 1.14 | 26 | 1003.8 |
| 20260504042005 | 20 | 237 | 4.8 | 14.5 | 0.00 | 0.00 | 1.12 | 25 | 1012.0 |
| 20260504041858 | 20 | 243 | 1.6 | 4.8 | 0.00 | 1.14 | 1.14 | 26 | 1004.1 |
| 20260504041505 | 20 | 266 | 4.8 | 11.3 | 0.00 | 0.00 | 1.12 | 24 | 1012.2 |
| 20260504041354 | 20 | 272 | 8.0 | 9.7 | 0.00 | 1.14 | 1.14 | 24 | 1003.9 |
| 20260504040850 | 20 | 244 | 3.2 | 4.8 | 0.00 | 1.14 | 1.14 | 27 | 1003.7 |
| 20260504040348 | 20 | 317 | 4.8 | 8.0 | 0.00 | 1.14 | 1.14 | 24 | 1003.9 |
| 20260504040004 | 20 | 187 | 3.2 | 9.7 | 0.00 | 0.00 | 1.12 | 23 | 1012.0 |
| 20260504035844 | 20 | 183 | 3.2 | 12.9 | 0.00 | 1.14 | 1.14 | 22 | 1003.8 |
| 20260504035505 | 20 | 207 | 1.6 | 6.4 | 0.00 | 0.00 | 1.12 | 21 | 1011.8 |
| 20260504035342 | 20 | 135 | 1.6 | 8.0 | 0.00 | 1.14 | 1.14 | 22 | 1003.6 |
| 20260504035004 | 20 | 244 | 8.0 | 11.3 | 0.00 | 0.00 | 1.12 | 20 | 1012.0 |
| 20260504034838 | 20 | 293 | 8.0 | 12.9 | 0.00 | 1.14 | 1.14 | 19 | 1003.8 |
| 20260504034505 | 20 | 172 | 4.8 | 16.1 | 0.00 | 0.00 | 1.12 | 20 | 1011.6 |
| 20260504034336 | 20 | 232 | 4.8 | 17.7 | 0.00 | 1.14 | 1.14 | 20 | 1003.6 |
| 20260504034005 | 21 | 310 | 3.2 | 14.5 | 0.00 | 0.00 | 1.12 | 20 | 1011.9 |
| 20260504033833 | 22 | 330 | 9.7 | 16.1 | 0.00 | 1.14 | 1.14 | 18 | 1003.7 |
| 20260504033331 | 21 | 266 | 4.8 | 9.7 | 0.00 | 1.14 | 1.14 | 21 | 1003.6 |
| 20260504033006 | 21 | 237 | 6.4 | 17.7 | 0.00 | 0.00 | 1.12 | 19 | 1012.0 |
| 20260504032827 | 22 | 283 | 4.8 | 14.5 | 0.00 | 1.14 | 1.14 | 20 | 1003.8 |
| 20260504032504 | 21 | 105 | 3.2 | 14.5 | 0.00 | 0.00 | 1.12 | 21 | 1012.1 |
| 20260504032325 | 21 | 327 | 6.4 | 11.3 | 0.00 | 1.14 | 1.14 | 22 | 1003.9 |
| 20260504032005 | 21 | 245 | 9.7 | 11.3 | 0.00 | 0.00 | 1.12 | 20 | 1012.1 |
| 20260504031821 | 21 | 135 | 6.4 | 12.9 | 0.00 | 1.14 | 1.14 | 21 | 1004.0 |
| 20260504031506 | 21 | 223 | 4.8 | 8.0 | 0.00 | 0.00 | 1.12 | 24 | 1012.5 |
| 20260504031319 | 21 | 285 | 6.4 | 12.9 | 0.00 | 1.14 | 1.14 | 23 | 1004.3 |
| 20260504031004 | 21 | 290 | 11.3 | 19.3 | 0.00 | 0.00 | 1.12 | 24 | 1012.2 |
| 20260504030815 | 21 | 235 | 8.0 | 12.9 | 0.00 | 1.14 | 1.14 | 25 | 1004.3 |
| 20260504030312 | 21 | 264 | 9.7 | 11.3 | 0.00 | 1.14 | 1.14 | 22 | 1003.8 |
| 20260504030004 | 21 | 238 | 3.2 | 14.5 | 0.00 | 0.00 | 1.12 | 25 | 1012.1 |
| 20260504025808 | 21 | 286 | 6.4 | 14.5 | 0.00 | 1.14 | 1.14 | 23 | 1003.7 |
| 20260504025505 | 22 | 233 | 14.5 | 17.7 | 0.00 | 0.00 | 1.12 | 23 | 1012.1 |
| 20260504025306 | 22 | 285 | 3.2 | 9.7 | 0.00 | 1.14 | 1.14 | 24 | 1003.9 |
| 20260504025004 | 22 | 289 | 4.8 | 11.3 | 0.00 | 0.00 | 1.12 | 25 | 1011.9 |
| 20260504024802 | 21 | 281 | 3.2 | 9.7 | 0.00 | 1.14 | 1.14 | 26 | 1003.8 |
| 20260504024505 | 21 | 279 | 6.4 | 19.3 | 0.00 | 0.00 | 1.12 | 27 | 1012.1 |
| 20260504024258 | 21 | 286 | 6.4 | 17.7 | 0.00 | 1.14 | 1.14 | 25 | 1003.9 |
| 20260504024005 | 22 | 302 | 8.0 | 14.5 | 0.00 | 0.00 | 1.12 | 25 | 1011.9 |
| 20260504023755 | 22 | 213 | 8.0 | 11.3 | 0.00 | 1.14 | 1.14 | 26 | 1004.1 |
| 20260504023505 | 21 | 338 | 3.2 | 9.7 | 0.00 | 0.00 | 1.12 | 28 | 1011.9 |
| 20260504023252 | 21 | 246 | 8.0 | 17.7 | 0.00 | 1.14 | 1.14 | 27 | 1004.3 |
| 20260504023004 | 21 | 336 | 8.0 | 11.3 | 0.00 | 0.00 | 1.12 | 30 | 1012.4 |
| 20260504022747 | 21 | 282 | 6.4 | 22.5 | 0.00 | 1.14 | 1.14 | 30 | 1003.9 |
| 20260504022505 | 21 | 272 | 9.7 | 11.3 | 0.00 | 0.00 | 1.12 | 30 | 1012.2 |
| 20260504022244 | 21 | 174 | 3.2 | 11.3 | 0.00 | 1.14 | 1.14 | 29 | 1004.4 |
| 20260504021741 | 21 | 262 | 3.2 | 12.9 | 0.00 | 1.14 | 1.14 | 31 | 1004.7 |
| 20260504021238 | 21 | 213 | 6.4 | 16.1 | 0.00 | 1.14 | 1.14 | 30 | 1004.4 |
| 20260504020735 | 21 | 321 | 6.4 | 11.3 | 0.00 | 1.14 | 1.14 | 35 | 1004.6 |
| 20260504020505 | 21 | 329 | 8.0 | 9.7 | 0.00 | 0.00 | 1.12 | 34 | 1012.7 |
| 20260504020232 | 20 | 218 | 3.2 | 8.0 | 0.00 | 1.14 | 1.14 | 36 | 1004.6 |
| 20260504015728 | 21 | 281 | 1.6 | 9.7 | 0.00 | 1.14 | 1.14 | 35 | 1004.9 |
| 20260504015225 | 21 | 295 | 8.0 | 11.3 | 0.00 | 1.14 | 1.14 | 37 | 1004.8 |
| 20260504015005 | 21 | 290 | 8.0 | 9.7 | 0.00 | 0.00 | 1.12 | 34 | 1012.7 |
| 20260504014720 | 20 | 191 | 6.4 | 11.3 | 0.00 | 1.14 | 1.14 | 35 | 1004.4 |
| 20260504014217 | 20 | 3 | 4.8 | 8.0 | 0.00 | 1.14 | 1.14 | 37 | 1004.5 |
| 20260504014005 | 20 | 292 | 4.8 | 11.3 | 0.00 | 0.00 | 1.12 | 39 | 1012.7 |
| 20260504013715 | 20 | 252 | 4.8 | 14.5 | 0.00 | 1.14 | 1.14 | 40 | 1004.6 |
| 20260504013504 | 20 | 173 | 4.8 | 9.7 | 0.00 | 0.00 | 1.12 | 43 | 1013.0 |
| 20260504013212 | 20 | 262 | 1.6 | 8.0 | 0.00 | 1.14 | 1.14 | 41 | 1004.8 |
| 20260504012709 | 21 | 251 | 6.4 | 9.7 | 0.00 | 1.14 | 1.14 | 39 | 1004.8 |
| 20260504012504 | 20 | 227 | 6.4 | 9.7 | 0.00 | 0.00 | 1.12 | 39 | 1012.7 |
| 20260504012207 | 20 | 221 | 3.2 | 12.9 | 0.00 | 1.14 | 1.14 | 41 | 1004.8 |
| 20260504011703 | 21 | 236 | 4.8 | 9.7 | 0.00 | 1.14 | 1.14 | 41 | 1004.5 |
| 20260504011506 | 21 | 259 | 6.4 | 11.3 | 0.00 | 0.00 | 1.12 | 42 | 1012.8 |
| 20260504011200 | 21 | 266 | 3.2 | 12.9 | 0.00 | 1.14 | 1.14 | 40 | 1004.6 |
| 20260504010656 | 20 | 246 | 3.2 | 4.8 | 0.00 | 1.14 | 1.14 | 47 | 1004.4 |
| 20260504010505 | 20 | 238 | 9.7 | 16.1 | 0.00 | 0.00 | 1.12 | 44 | 1012.8 |
| 20260504010151 | 20 | 219 | 8.0 | 16.1 | 0.00 | 1.14 | 1.14 | 43 | 1004.7 |
| 20260504010005 | 20 | 307 | 4.8 | 11.3 | 0.00 | 0.00 | 1.12 | 44 | 1012.6 |
| 20260504005649 | 20 | 256 | 3.2 | 11.3 | 0.00 | 1.14 | 1.14 | 45 | 1004.7 |
| 20260504005505 | 20 | 252 | 4.8 | 16.1 | 0.00 | 0.00 | 1.12 | 44 | 1012.6 |
| 20260504005145 | 20 | 273 | 6.4 | 9.7 | 0.00 | 1.14 | 1.14 | 43 | 1004.3 |
| 20260504005004 | 20 | 303 | 6.4 | 9.7 | 0.00 | 0.00 | 1.12 | 45 | 1012.4 |
| 20260504004644 | 20 | 341 | 1.6 | 11.3 | 0.00 | 1.14 | 1.14 | 46 | 1004.5 |
| 20260504004140 | 20 | 233 | 3.2 | 4.8 | 0.00 | 1.14 | 1.14 | 46 | 1004.4 |
| 20260504003637 | 20 | 269 | 4.8 | 9.7 | 0.00 | 1.14 | 1.14 | 47 | 1004.7 |
| 20260504003505 | 20 | 210 | 8.0 | 20.9 | 0.00 | 0.00 | 1.12 | 45 | 1012.5 |
| 20260504003133 | 20 | 279 | 8.0 | 16.1 | 0.00 | 1.14 | 1.14 | 44 | 1004.3 |
| 20260504002630 | 20 | 287 | 4.8 | 11.3 | 0.00 | 1.14 | 1.14 | 48 | 1004.5 |
| 20260504002505 | 20 | 307 | 4.8 | 6.4 | 0.00 | 0.00 | 1.12 | 50 | 1012.5 |
| 20260504002128 | 20 | 215 | 3.2 | 8.0 | 0.00 | 1.14 | 1.14 | 52 | 1004.4 |
| 20260504002005 | 20 | 234 | 3.2 | 9.7 | 0.00 | 0.00 | 1.12 | 52 | 1012.8 |
| 20260504001626 | 20 | 249 | 1.6 | 4.8 | 0.00 | 1.14 | 1.14 | 53 | 1004.5 |
| 20260504001121 | 20 | 216 | 4.8 | 8.0 | 0.00 | 1.14 | 1.14 | 55 | 1004.4 |
| 20260504001005 | 19 | 252 | 3.2 | 6.4 | 0.00 | 0.00 | 1.12 | 53 | 1012.6 |
| 20260504000619 | 19 | 307 | 3.2 | 8.0 | 0.00 | 1.14 | 1.14 | 55 | 1004.4 |
| 20260504000505 | 19 | 272 | 6.4 | 8.0 | 0.00 | 0.00 | 1.12 | 56 | 1012.6 |
| 20260504000116 | 19 | 266 | 1.6 | 4.8 | 0.00 | 1.14 | 1.14 | 59 | 1004.5 |
| 20260503235614 | 19 | 345 | 1.6 | 3.2 | 0.00 | 1.14 | 1.14 | 61 | 1004.8 |
| 20260503235507 | 18 | 259 | 3.2 | 6.4 | 0.00 | 1.12 | 1.12 | 61 | 1012.6 |
| 20260503235110 | 19 | 232 | 1.6 | 4.8 | 0.00 | 1.14 | 1.14 | 61 | 1004.9 |
| 20260503235004 | 18 | 240 | 1.6 | 6.4 | 0.00 | 1.12 | 1.12 | 62 | 1012.6 |
| 20260503234609 | 17 | 274 | 3.2 | 8.0 | 0.00 | 1.14 | 1.14 | 59 | 1004.7 |
| 20260503234505 | 17 | 297 | 3.2 | 6.4 | 0.00 | 1.12 | 1.12 | 60 | 1012.8 |
| 20260503234106 | 16 | 288 | 1.6 | 4.8 | 0.00 | 1.14 | 1.14 | 66 | 1004.9 |
| 20260503233603 | 15 | 332 | 4.8 | 9.7 | 0.00 | 1.14 | 1.14 | 77 | 1004.9 |
| 20260503233505 | 15 | 25 | 3.2 | 4.8 | 0.00 | 0.00 | 1.12 | 78 | 1013.0 |
| 20260503233059 | 15 | 269 | 6.4 | 11.3 | 0.00 | 1.14 | 1.14 | 78 | 1004.9 |
| 20260503233005 | 15 | 266 | 6.4 | 6.4 | 0.00 | 0.00 | 1.12 | 78 | 1012.9 |
| 20260503232556 | 14 | 309 | 4.8 | 8.0 | 0.00 | 1.14 | 1.14 | 78 | 1004.8 |
| 20260503232505 | 14 | 270 | 3.2 | 6.4 | 0.00 | 0.00 | 1.12 | 78 | 1013.1 |
| 20260503232053 | 15 | 252 | 1.6 | 3.2 | 0.00 | 1.14 | 1.14 | 78 | 1005.0 |
| 20260503232005 | 15 | 283 | 0.0 | 4.8 | 0.00 | 0.00 | 1.12 | 78 | 1012.8 |
| 20260503231551 | 15 | 317 | 0.0 | 0.0 | 0.00 | 1.14 | 1.14 | 78 | 1004.7 |
| 20260503231047 | 15 | 351 | 0.0 | 0.0 | 0.00 | 1.14 | 1.14 | 78 | 1004.7 |
| 20260503231005 | 15 | 231 | 0.0 | 0.0 | 0.00 | 0.00 | 1.12 | 78 | 1012.8 |
| 20260503230544 | 15 | 261 | 0.0 | 0.0 | 0.00 | 1.14 | 1.14 | 78 | 1004.9 |
| 20260503230041 | 15 | 250 | 0.0 | 0.0 | 0.00 | 1.14 | 1.14 | 78 | 1004.4 |
| 20260503230005 | 14 | 268 | 0.0 | 0.0 | 0.00 | 0.00 | 1.12 | 78 | 1012.5 |
| 20260503225538 | 14 | 293 | 0.0 | 0.0 | 0.00 | 1.14 | 1.14 | 78 | 1004.6 |
| 20260503225504 | 14 | 293 | 0.0 | 6.4 | 0.00 | 0.00 | 1.12 | 78 | 1012.5 |
| 20260503225033 | 14 | 294 | 0.0 | 1.6 | 0.00 | 1.14 | 1.14 | 78 | 1004.7 |
| 20260503225004 | 14 | 293 | 0.0 | 3.2 | 0.00 | 0.00 | 1.12 | 78 | 1012.7 |
| 20260503224531 | 14 | 303 | 0.0 | 0.0 | 0.00 | 1.14 | 1.14 | 78 | 1004.7 |
| 20260503224505 | 14 | 316 | 0.0 | 0.0 | 0.00 | 0.00 | 1.12 | 78 | 1012.6 |
| 20260503224028 | 14 | 356 | 0.0 | 1.6 | 0.00 | 1.14 | 1.14 | 78 | 1004.6 |
| 20260503223526 | 14 | 16 | 0.0 | 0.0 | 0.00 | 1.14 | 1.14 | 78 | 1004.6 |
| 20260503223505 | 13 | 344 | 0.0 | 0.0 | 0.00 | 0.00 | 1.12 | 78 | 1012.6 |
| 20260503223021 | 13 | 331 | 0.0 | 0.0 | 0.00 | 1.14 | 1.14 | 78 | 1004.6 |
| 20260503223004 | 13 | 334 | 0.0 | 0.0 | 0.00 | 0.00 | 1.12 | 78 | 1012.8 |
| 20260503222520 | 13 | 2 | 0.0 | 0.0 | 0.00 | 1.14 | 1.14 | 78 | 1004.5 |
| 20260503222018 | 12 | 288 | 0.0 | 0.0 | 0.00 | 1.14 | 1.14 | 78 | 1004.5 |
| 20260503222004 | 12 | 273 | 0.0 | 0.0 | 0.00 | 0.00 | 1.12 | 78 | 1012.7 |
| 20260503221516 | 12 | 283 | 0.0 | 0.0 | 0.00 | 1.14 | 1.14 | 78 | 1004.5 |
| 20260503221013 | 12 | 209 | 0.0 | 1.6 | 0.00 | 1.14 | 1.14 | 78 | 1004.8 |
| 20260503220509 | 12 | 284 | 0.0 | 0.0 | 0.00 | 1.14 | 1.14 | 78 | 1004.8 |
| 20260503220504 | 12 | 284 | 0.0 | 0.0 | 0.00 | 0.00 | 1.12 | 78 | 1012.9 |
| 20260503220006 | 12 | 285 | 0.0 | 0.0 | 0.00 | 1.14 | 1.14 | 78 | 1004.7 |
| 20260503220004 | 12 | 285 | 0.0 | 0.0 | 0.00 | 0.00 | 1.12 | 78 | 1012.8 |
| 20260503215505 | 12 | 285 | 0.0 | 0.0 | 0.00 | 0.00 | 1.12 | 78 | 1012.6 |
| 20260503215503 | 12 | 285 | 0.0 | 0.0 | 0.00 | 1.14 | 1.14 | 78 | 1004.5 |
| 20260503215005 | 12 | 279 | 0.0 | 0.0 | 0.00 | 0.00 | 1.12 | 78 | 1012.8 |
| 20260503215000 | 12 | 279 | 0.0 | 0.0 | 0.00 | 1.14 | 1.14 | 78 | 1004.7 |
| 20260503214504 | 13 | 265 | 0.0 | 0.0 | 0.10 | 0.00 | 1.12 | 78 | 1012.6 |
| 20260503214458 | 13 | 265 | 0.0 | 0.0 | 0.13 | 1.14 | 1.14 | 78 | 1004.5 |
| 20260503214005 | 13 | 266 | 0.0 | 0.0 | 0.10 | 0.00 | 1.12 | 78 | 1012.7 |
| 20260503213955 | 13 | 266 | 0.0 | 0.0 | 0.13 | 1.14 | 1.14 | 78 | 1004.6 |
| 20260503213453 | 13 | 295 | 0.0 | 0.0 | 0.00 | 1.12 | 1.12 | 78 | 1004.4 |
| 20260503212949 | 13 | 230 | 0.0 | 0.0 | 0.18 | 1.12 | 1.12 | 78 | 1004.1 |
| 20260503212505 | 13 | 246 | 0.0 | 0.0 | 0.28 | 0.00 | 1.12 | 78 | 1012.3 |
| 20260503212447 | 13 | 246 | 0.0 | 0.0 | 0.30 | 1.12 | 1.12 | 78 | 1004.1 |
| 20260503211944 | 13 | 247 | 0.0 | 0.0 | 0.43 | 1.09 | 1.09 | 78 | 1004.1 |
| 20260503211441 | 12 | 64 | 0.0 | 0.0 | 0.61 | 1.07 | 1.07 | 78 | 1003.8 |
| 20260503211005 | 12 | 54 | 0.0 | 0.0 | 0.46 | 0.00 | 1.02 | 78 | 1012.2 |
| 20260503210936 | 12 | 54 | 0.0 | 0.0 | 0.48 | 1.02 | 1.02 | 78 | 1004.0 |
| 20260503210504 | 12 | 82 | 0.0 | 0.0 | 0.18 | 0.00 | 0.97 | 78 | 1012.4 |
| 20260503210433 | 12 | 82 | 0.0 | 0.0 | 0.18 | 0.97 | 0.97 | 78 | 1004.3 |
| 20260503210005 | 12 | 84 | 0.0 | 0.0 | 0.00 | 0.00 | 0.94 | 78 | 1012.4 |
| 20260503205928 | 12 | 84 | 0.0 | 0.0 | 0.00 | 0.94 | 0.94 | 78 | 1004.3 |
| 20260503205505 | 12 | 33 | 0.0 | 0.0 | 0.10 | 0.00 | 0.94 | 78 | 1012.1 |
| 20260503205425 | 12 | 33 | 0.0 | 0.0 | 0.13 | 0.94 | 0.94 | 78 | 1003.9 |
| 20260503205004 | 12 | 45 | 1.6 | 3.2 | 0.10 | 0.00 | 0.94 | 78 | 1012.1 |
| 20260503204921 | 12 | 45 | 1.6 | 1.6 | 0.13 | 0.94 | 0.94 | 78 | 1003.9 |
| 20260503204419 | 12 | 285 | 0.0 | 0.0 | 0.00 | 0.91 | 0.91 | 78 | 1003.9 |
| 20260503204005 | 12 | 95 | 0.0 | 0.0 | 0.00 | 0.00 | 0.91 | 78 | 1012.3 |
| 20260503203916 | 12 | 96 | 0.0 | 0.0 | 0.00 | 0.91 | 0.91 | 78 | 1004.1 |
| 20260503203504 | 12 | 52 | 0.0 | 0.0 | 0.00 | 0.00 | 0.91 | 78 | 1012.3 |
| 20260503203413 | 12 | 52 | 0.0 | 0.0 | 0.00 | 0.91 | 0.91 | 78 | 1003.8 |
| 20260503203004 | 12 | 25 | 0.0 | 0.0 | 0.18 | 0.00 | 0.91 | 78 | 1012.2 |
| 20260503202910 | 12 | 24 | 0.0 | 0.0 | 0.18 | 0.91 | 0.91 | 78 | 1003.7 |
| 20260503202505 | 12 | 62 | 0.0 | 0.0 | 0.36 | 0.00 | 0.91 | 78 | 1011.9 |
| 20260503202408 | 12 | 62 | 0.0 | 0.0 | 0.36 | 0.91 | 0.91 | 78 | 1003.8 |
| 20260503202005 | 12 | 49 | 0.0 | 0.0 | 0.28 | 0.00 | 0.89 | 78 | 1012.1 |
| 20260503201906 | 12 | 48 | 0.0 | 0.0 | 0.30 | 0.89 | 0.89 | 78 | 1003.9 |
| 20260503201505 | 12 | 33 | 0.0 | 0.0 | 0.10 | 0.00 | 0.84 | 78 | 1012.2 |
| 20260503201403 | 12 | 33 | 0.0 | 0.0 | 0.13 | 0.86 | 0.86 | 78 | 1004.0 |
| 20260503200901 | 12 | 32 | 0.0 | 3.2 | 0.18 | 0.84 | 0.84 | 78 | 1003.8 |
| 20260503200356 | 12 | 38 | 0.0 | 0.0 | 0.13 | 0.81 | 0.81 | 78 | 1004.0 |
| 20260503200005 | 12 | 38 | 0.0 | 0.0 | 0.10 | 0.00 | 0.79 | 78 | 1011.9 |
| 20260503195854 | 12 | 38 | 0.0 | 0.0 | 0.30 | 0.81 | 0.81 | 78 | 1003.9 |
| 20260503195350 | 12 | 40 | 0.0 | 1.6 | 0.30 | 0.79 | 0.79 | 78 | 1003.8 |
| 20260503195005 | 12 | 52 | 0.0 | 0.0 | 0.76 | 0.00 | 0.79 | 78 | 1011.9 |
| 20260503194847 | 12 | 52 | 0.0 | 0.0 | 0.71 | 0.76 | 0.76 | 78 | 1003.8 |
| 20260503194343 | 12 | 53 | 0.0 | 0.0 | 1.07 | 0.71 | 0.71 | 78 | 1004.0 |
| 20260503193840 | 11 | 39 | 0.0 | 0.0 | 0.97 | 0.64 | 0.64 | 78 | 1004.4 |
| 20260503193505 | 11 | 46 | 0.0 | 3.2 | 0.58 | 0.00 | 0.56 | 78 | 1012.2 |
| 20260503193336 | 11 | 91 | 0.0 | 1.6 | 0.43 | 0.53 | 0.53 | 78 | 1004.1 |
| 20260503193005 | 12 | 32 | 3.2 | 6.4 | 0.10 | 0.00 | 0.46 | 78 | 1012.2 |
| 20260503192832 | 12 | 36 | 3.2 | 4.8 | 0.13 | 0.48 | 0.48 | 78 | 1004.0 |
| 20260503192504 | 12 | 84 | 0.0 | 3.2 | 0.00 | 0.00 | 0.46 | 78 | 1012.3 |
| 20260503192327 | 12 | 165 | 0.0 | 1.6 | 0.00 | 0.46 | 0.46 | 78 | 1004.3 |
| 20260503192005 | 12 | 42 | 0.0 | 6.4 | 0.00 | 0.00 | 0.46 | 78 | 1011.8 |
| 20260503191824 | 12 | 38 | 1.6 | 4.8 | 0.00 | 0.46 | 0.46 | 78 | 1003.7 |
| 20260503191505 | 12 | 97 | 0.0 | 0.0 | 0.00 | 0.00 | 0.46 | 78 | 1012.1 |
| 20260503191321 | 12 | 97 | 0.0 | 0.0 | 0.00 | 0.46 | 0.46 | 78 | 1003.8 |
| 20260503190818 | 12 | 165 | 0.0 | 0.0 | 0.00 | 0.46 | 0.46 | 78 | 1004.0 |
| 20260503190505 | 12 | 32 | 0.0 | 3.2 | 0.18 | 0.00 | 0.46 | 78 | 1012.3 |
| 20260503190315 | 12 | 29 | 3.2 | 3.2 | 0.18 | 0.46 | 0.46 | 78 | 1004.0 |
| 20260503185812 | 12 | 54 | 0.0 | 0.0 | 0.30 | 0.46 | 0.46 | 78 | 1004.1 |
| 20260503185505 | 12 | 53 | 0.0 | 0.0 | 0.10 | 0.00 | 0.41 | 78 | 1012.8 |
| 20260503185308 | 12 | 52 | 0.0 | 0.0 | 0.30 | 0.43 | 0.43 | 78 | 1004.5 |
| 20260503185004 | 11 | 53 | 0.0 | 0.0 | 0.18 | 0.00 | 0.41 | 78 | 1012.9 |
| 20260503184807 | 11 | 53 | 0.0 | 0.0 | 0.30 | 0.41 | 0.41 | 78 | 1004.8 |